User: anonymous   Login
Location: Unspecified
(0.0000°N, 0.0000°E)
Time: 15:08:44
(UTC+00:00)
Language:

OBJECT PF - Orbit

View from above orbital plane
View from above orbital plane
View from above satellite
View from above satellite

Ground track
Ground track

The orbit data is extracted from the following two-line orbital elements,

1 43591U 98067PF  19048.53917915  .00008535  00000-0  11548-3 0  9997
2 43591  51.6366 232.1833 0005864  64.7562 295.4037 15.58617221 29768
Epoch (UTC): 17 February 2019 12:56:25
Eccentricity: 0.0005864
inclination: 51.6366°
perigee height: 387 km
apogee height: 395 km
right ascension of ascending node: 232.1833°
argument of perigee: 64.7562°
revolutions per day: 15.58617221
mean anomaly at epoch: 295.4037°
orbit number at epoch: 2976

The dashed part of the orbit path shows where the satellite is in the earth's shadow,  

DLR